This demonstration page uses our WeatherBlox Daily Observations layout. Learn more.

39.92423, -83.80882

Hourly Observations for July 24, 2018

Temp ( °F °C ) Dew Point ( °F °C ) Humidity (%) Winds ( mph kmh ) Pressure ( in mb ) Visibility ( mi km ) Precip ( " mm )
12:56 am 00:56 Clear 66 18.9 66 18.9 100 100 Calm 29.94 1014 9 14.48406 0 0
1:56 am 01:56 Clear 68 20 67 19.4 96 96 Calm 29.93 1014 10 16.0934 0 0
2:56 am 02:56 Clear 68 20 68 20 100 100 NW 3 6 29.93 1013 10 16.0934 0 0
3:56 am 03:56 Clear 67 19.4 67 19.4 100 100 W 3 6 29.93 1014 10 16.0934 0 0
4:56 am 04:56 Clear 67 19.4 67 19.4 100 100 W 3 6 29.93 1014 10 16.0934 0 0
5:56 am 05:56 Clear 65 18.3 65 18.3 100 100 W 6 9 29.95 1014 8 12.87472 0 0
6:34 am 06:34 Partly Cloudy with Mist and Fog 63 17 63 17 100 100 WSW 3 6 29.97 1015 2.5 4.02335 0 0
6:56 am 06:56 Partly Cloudy with Mist and Fog 64 17.8 64 17.8 100 100 SW 3 6 29.96 1015 2 3.21868 0 0
7:19 am 07:19 Partly Cloudy with Mist and Fog 64 18 64 18 100 100 Calm 29.94 1014 1.5 2.41401 0 0
7:36 am 07:36 Partly Cloudy with Mist and Fog 66 19 66 19 100 100 W 3 6 29.94 1014 3 4.82802 0 0
7:56 am 07:56 Partly Cloudy with Mist and Fog 67 19.4 67 19.4 100 100 W 5 7 29.97 1015 3 4.82802 0 0
8:29 am 08:29 Partly Cloudy with Mist and Fog 68 20 66 19 94 94 WNW 7 11 29.97 1015 1.75 2.816345 0 0
8:34 am 08:34 Partly Cloudy with Mist and Fog 66 19 66 19 100 100 W 7 11 29.97 1015 0.75 1.207005 0 0
8:38 am 08:38 Partly Cloudy with Fog 66 19 66 19 100 100 W 7 11 29.97 1015 0.25 0.402335 0 0
8:56 am 08:56 Partly Cloudy with Fog 66 18.9 66 18.9 100 100 WNW 7 11 29.98 1015 0.25 0.402335 0 0
9:13 am 09:13 Partly Cloudy with Mist and Fog 66 19 66 19 100 100 NW 5 7 29.97 1015 0.75 1.207005 0 0
9:26 am 09:26 Partly Cloudy with Mist and Fog 66 19 66 19 100 100 WNW 6 9 29.97 1015 1.25 2.011675 0 0
9:48 am 09:48 Partly Cloudy with Mist and Fog 68 20 68 20 100 100 VRB 6 9 29.97 1015 3 4.82802 0 0
9:56 am 09:56 Partly Cloudy with Mist and Fog 69 20.6 68 20 96 96 Calm 29.99 1016 5 8.0467 0 0
10:56 am 10:56 Sunny 74 23.3 68 20 82 82 VRB 5 7 29.99 1016 10 16.0934 0 0
11:56 am 11:56 Sunny 75 23.9 67 19.4 76 76 Calm 29.99 1016 10 16.0934 0 0
12:56 pm 12:56 Sunny 73 22.8 68 20 84 84 WNW 7 11 30 1016 10 16.0934 0 0
1:56 pm 13:56 Sunny 77 25 67 19.4 71 71 VRB 5 7 29.98 1015 10 16.0934 0 0
2:56 pm 14:56 Sunny 77 25 67 19.4 71 71 WSW 5 7 29.97 1015 10 16.0934 0 0
3:56 pm 15:56 Sunny 76 24.4 67 19.4 74 74 W 8 13 29.96 1015 10 16.0934 0 0
4:56 pm 16:56 Sunny 77 25 68 20 74 74 WNW 9 15 29.96 1015 10 16.0934 0 0
5:56 pm 17:56 Sunny 77 25 66 18.9 69 69 NW 8 13 29.95 1014 10 16.0934 0 0
6:56 pm 18:56 Sunny 77 25 66 18.9 69 69 NW 7 11 29.95 1014 10 16.0934 0 0
7:56 pm 19:56 Sunny 76 24.4 67 19.4 74 74 NW 6 9 29.94 1014 10 16.0934 0 0
8:56 pm 20:56 Sunny 72 22.2 68 20 87 87 W 3 6 29.95 1014 10 16.0934 0 0
9:56 pm 21:56 Clear 69 20.6 68 20 96 96 SW 3 6 29.97 1015 10 16.0934 0 0
10:56 pm 22:56 Clear 68 20 68 20 100 100 W 5 7 29.98 1015 10 16.0934 0 0
11:56 pm 23:56 Clear 69 20.6 68 20 96 96 SSW 3 6 29.98 1015 10 16.0934 0 0

Powered by AerisWeather